Flag for U.S.A. Weather past 2 weeks in New Orleans, Louisiana, U.S.A.

Now
78 °F

Sunny.


Feels Like: 79 °F
Forecast: 59 / 76 °F
Wind: No wind

Location: Lakefront Airport


UV Index: 5 (Moderate)

Visibility: 10 mi


Pressure: 30.07 "Hg

Humidity: 43%

Dew point: 54 °F

Location of New OrleansLocation

Historic Weather in New Orleans

°F

New Orleans temperature yesterday

Maximum temperature yesterday: 73 °F (at 5:53 PM)
Minimum temperature yesterday: 58 °F (at 5:53 AM)
Average temperature yesterday: 66 °F

Past Weeks' High & Low Weather Summary

 TemperatureHumidityPressure
High82 °F (Apr 13, 12:53 PM)100% (Apr 6, 3:53 AM)30.25 "Hg (Apr 6, 3:53 AM)
Low48 °F (Apr 15, 8:53 AM)36% (Apr 15, 4:53 PM)29.64 "Hg (Apr 7, 6:53 AM)
Average65 °F74%30.03 "Hg
* Reported Apr 5 5:53 PM — Apr 20 5:53 PM, New Orleans, Weather by CustomWeather, © 2014

Note: Actual official high and low records may vary slightly from our data, if they occured in-between our weather recording intervals... More about our weather records

Advertising

Historic Weather Conditions — Data for Previous 24 hours

 ConditionsComfort  
Time TempWeatherWind HumidityBarometerVisibility
5:53 PM
Apr 20
77 °FSunny.3 mph47%30.07 "Hg10 mi
4:53 PM77 °FSunny.5 mph48%30.09 "Hg7 mi
3:53 PM76 °FSunny.6 mph54%30.10 "Hg6 mi
2:53 PM76 °FSunny.5 mph50%30.12 "Hg6 mi
1:53 PM75 °FSunny.5 mph55%30.14 "Hg10 mi
12:53 PM73 °FSunny.6 mph64%30.16 "Hg10 mi
11:53 AM73 °FSunny.7 mph62%30.17 "Hg10 mi
10:53 AM71 °FSunny.8 mph68%30.18 "Hg10 mi
9:53 AM71 °FSunny.8 mph68%30.18 "Hg10 mi
8:53 AM69 °FSunny.9 mph73%30.16 "Hg10 mi
7:53 AM65 °FSunny.12 mph85%30.15 "Hg10 mi
6:53 AM64 °FClear.7 mph81%30.14 "Hg10 mi
5:53 AM64 °FClear.10 mph75%30.11 "Hg10 mi
4:53 AM65 °FClear.9 mph78%30.11 "Hg10 mi
3:53 AM65 °FClear.8 mph78%30.10 "Hg10 mi
2:53 AM65 °FClear.7 mph81%30.09 "Hg10 mi
1:53 AM67 °FClear.7 mph76%30.09 "Hg10 mi
12:53 AM68 °FClear.9 mph73%30.09 "Hg10 mi
11:53 PM
Apr 19
68 °FClear.7 mph78%30.09 "Hg10 mi
10:53 PM69 °FClear.8 mph73%30.10 "Hg10 mi
9:53 PM69 °FClear.5 mph79%30.10 "Hg9 mi
8:53 PM69 °FClear.5 mph81%30.10 "Hg10 mi
7:53 PM70 °FSunny.6 mph73%30.08 "Hg10 mi
Weather by CustomWeather, © 2014

See weather overview